Elmira, NY

4:39 PM EDT on April 28, 2017 (GMT -0400)
Elmira-Corning Regional

Weather History for KELM - February, 2014

Change the Weather History Date:

Thursday, February 20, 2014

  Actual Average Record
Temperature  
Mean Temperature 29 °F -  
Max Temperature 44 °F 39 °F 67 °F (1930)
Min Temperature 14 °F 19 °F -10 °F (1978)
Degree Days  
Heating Degree Days 36    
Moisture  
Dew Point 23 °F    
Average Humidity 74    
Maximum Humidity 100    
Minimum Humidity 45    
Precipitation  
Precipitation 0.14 in - - ()
Sea Level Pressure  
Sea Level Pressure 30.07 in    
Wind  
Wind Speed 3 mph (SE)    
Max Wind Speed 9 mph    
Max Gust Speed 20 mph    
Visibility 7 miles    
Events Rain    
Averages and records for this station are not official NWS values.
T = Trace of Precipitation, MM = Missing Value Source: NWS Daily Summary

Daily Weather History Graph

Daily Weather History Graph

Search for Another Location

Airport or City:

Trip Planner

Search our weather history database for the weather conditions in past years. The results will help you decide how hot, cold, wet, or windy it might be!

Date:

Astronomy

Feb. 20, 2014 Rise Set
Actual Time 6:56 AM EST 5:46 PM EST
Civil Twilight 6:28 AM EST 6:15 PM EST
Nautical Twilight 5:55 AM EST 6:47 PM EST
Astronomical Twilight 5:23 AM EST 7:20 PM EST
Moon 11:45 PM EST (2/20) 9:31 AM EST (2/20)
Length of Visible Light 11h 46m
Length of Day
10h 49m
Waning Gibbous, 71% of the Moon is Illuminated
Feb 20
Waning Gibbous
Feb 22
Last Quarter
Mar 1
New
Mar 8
First Quarter
Mar 16
Full

Hourly Weather History & Observations

Time (EST) Temp. Windchill Dew Point Humidity Pressure Visibility Wind Dir Wind Speed Gust Speed Precip Events Conditions
12:53 AM 25.0 °F 20.7 °F 21.0 °F 85% 30.12 in 10.0 mi WSW 3.5 mph - N/A   Clear
1:53 AM 24.1 °F 19.7 °F 21.0 °F 88% 30.11 in 9.0 mi West 3.5 mph - N/A   Clear
2:53 AM 19.0 °F - 17.1 °F 92% 30.14 in 5.0 mi Calm Calm - N/A   Clear
3:53 AM 18.0 °F - 15.1 °F 88% 30.16 in 3.0 mi Calm Calm - N/A   Clear
4:53 AM 15.1 °F - 12.0 °F 88% 30.18 in 2.0 mi Calm Calm - N/A   Clear
5:12 AM 15.8 °F - 12.2 °F 86% 30.15 in 3.0 mi Calm Calm - N/A   Clear
5:21 AM 15.8 °F - 12.2 °F 86% 30.15 in 1.8 mi Calm Calm - N/A   Clear
5:42 AM 14.0 °F - 12.2 °F 93% 30.15 in 3.0 mi Calm Calm - N/A   Clear
5:53 AM 15.1 °F 9.4 °F 12.0 °F 88% 30.19 in 6.0 mi ENE 3.5 mph - N/A   Clear
6:53 AM 14.0 °F - 10.9 °F 88% 30.19 in 5.0 mi Calm Calm - N/A   Clear
7:53 AM 18.0 °F - 14.0 °F 84% 30.21 in 5.0 mi Calm Calm - N/A   Clear
8:53 AM 23.0 °F - 23.0 °F 100% 30.21 in 6.0 mi Calm Calm - N/A   Clear
9:53 AM 30.0 °F - 25.0 °F 82% 30.20 in 5.0 mi Calm Calm - N/A   Haze
10:53 AM 35.1 °F 31.0 °F 27.0 °F 72% 30.17 in 8.0 mi East 4.6 mph - N/A   Clear
11:53 AM 39.9 °F 36.7 °F 27.0 °F 60% 30.14 in 10.0 mi NE 4.6 mph - N/A   Clear
12:53 PM 43.0 °F 39.5 °F 25.0 °F 49% 30.09 in 10.0 mi East 5.8 mph - N/A   Clear
1:53 PM 44.1 °F 39.5 °F 24.1 °F 45% 30.04 in 10.0 mi SE 8.1 mph - N/A   Mostly Cloudy
2:53 PM 42.1 °F 37.7 °F 25.0 °F 51% 30.09 in 3.0 mi South 6.9 mph 19.6 mph 0.01 in Rain Light Rain
3:01 PM 41.0 °F 35.8 °F 26.6 °F 57% 30.04 in 2.0 mi SSE 8.1 mph 16.1 mph 0.00 in Rain Rain
3:12 PM 39.2 °F 33.0 °F 26.6 °F 61% 30.03 in 3.0 mi SSE 9.2 mph - 0.01 in Rain Light Rain
3:53 PM 39.9 °F - 27.0 °F 60% 30.04 in 9.0 mi Calm Calm - 0.03 in Rain Light Rain
4:32 PM 39.2 °F 37.0 °F 30.2 °F 70% 29.98 in 2.5 mi East 3.5 mph - 0.04 in Rain Rain
4:39 PM 37.4 °F - 30.2 °F 75% 29.98 in 8.0 mi Calm Calm - 0.04 in Rain Light Rain
4:53 PM 39.0 °F 36.8 °F 30.0 °F 70% 30.02 in 6.0 mi Variable 3.5 mph - 0.05 in Rain Light Rain
5:53 PM 37.0 °F 32.4 °F 30.9 °F 79% 30.02 in 10.0 mi Variable 5.8 mph - 0.05 in Rain Light Rain
6:53 PM 37.9 °F 33.5 °F 28.9 °F 70% 30.01 in 10.0 mi Variable 5.8 mph - 0.00 in   Overcast
7:53 PM 39.0 °F 36.8 °F 28.0 °F 65% 29.96 in 10.0 mi Variable 3.5 mph - N/A   Mostly Cloudy
8:53 PM 39.0 °F 34.8 °F 26.1 °F 60% 29.92 in 10.0 mi SE 5.8 mph - N/A   Mostly Cloudy
9:53 PM 37.9 °F - 27.0 °F 65% 29.90 in 10.0 mi Calm Calm - N/A   Overcast
10:53 PM 37.0 °F - 30.0 °F 76% 29.87 in 10.0 mi Calm Calm - N/A   Overcast
11:53 PM 37.9 °F 34.4 °F 28.0 °F 68% 29.85 in 10.0 mi SE 4.6 mph - N/A   Overcast